SHT9W EGPH-EGLL

Flight info

Callsign SHT9W
Flight time 1h 0m
Altitude 25000
Route DCT GOSAM DCT FENIK L612 ELBUS DCT LAKEY/N0440F330 DCT NUGRA NUGRA2H
Aircraft A320/M-SDE3FGHIJ1KRWXY/SB1

Departure

Time 2026-05-04 07:34
Airport Edinburgh Airport (EGPH)

Arrival

Time 2026-05-04 08:35
Airport London Heathrow Airport (EGLL)
Time Latitude Longitude Altitude Speed Heading
2026-05-04 07:08 55.94919 -3.36428 113 ft 0 kts 148°
2026-05-04 07:26 55.94928 -3.36437 112 ft 4 kts 147°
2026-05-04 07:27 55.94949 -3.36465 112 ft 4 kts 137°
2026-05-04 07:27 55.94966 -3.36500 113 ft 4 kts 110°
2026-05-04 07:27 55.94968 -3.36534 112 ft 1 kts 59°
2026-05-04 07:27 55.94967 -3.36534 112 ft 0 kts 59°
2026-05-04 07:30 55.94968 -3.36533 112 ft 1 kts 59°
2026-05-04 07:30 55.94975 -3.36511 112 ft 3 kts 60°
2026-05-04 07:30 55.94991 -3.36463 112 ft 6 kts 59°
2026-05-04 07:30 55.95023 -3.36401 116 ft 8 kts 26°
2026-05-04 07:31 55.95084 -3.36387 115 ft 10 kts 25°
2026-05-04 07:31 55.95135 -3.36282 116 ft 13 kts 59°
2026-05-04 07:33 55.95458 -3.35411 116 ft 12 kts 359°
2026-05-04 07:33 55.95536 -3.35479 113 ft 14 kts 329°
2026-05-04 07:33 55.95543 -3.35645 111 ft 17 kts 239°
2026-05-04 07:33 55.95429 -3.35986 111 ft 64 kts 238°
2026-05-04 07:34 55.95074 -3.37002 113 ft 125 kts 237°
2026-05-04 07:34 55.94559 -3.38523 270 ft 154 kts 238°
2026-05-04 07:34 55.93998 -3.40235 734 ft 166 kts 239°
2026-05-04 07:34 55.93401 -3.42009 1363 ft 168 kts 236°
2026-05-04 07:35 55.92746 -3.43879 1700 ft 189 kts 236°
2026-05-04 07:35 55.92002 -3.45993 2001 ft 213 kts 236°
2026-05-04 07:35 55.91171 -3.48360 2435 ft 238 kts 237°
2026-05-04 07:35 55.90421 -3.51128 3003 ft 259 kts 256°
2026-05-04 07:36 55.90088 -3.54320 3894 ft 264 kts 259°
2026-05-04 07:36 55.89767 -3.57576 4865 ft 268 kts 259°
2026-05-04 07:38 55.87353 -3.81687 10403 ft 315 kts 259°
2026-05-04 07:38 55.86957 -3.85664 10708 ft 335 kts 259°
2026-05-04 07:38 55.86549 -3.89790 11320 ft 342 kts 259°
2026-05-04 07:38 55.86134 -3.93988 12019 ft 346 kts 259°
2026-05-04 07:39 55.85712 -3.98234 12716 ft 350 kts 259°
2026-05-04 07:39 55.85283 -4.02514 13406 ft 353 kts 259°
2026-05-04 07:39 55.84844 -4.06845 14088 ft 357 kts 259°
2026-05-04 07:39 55.84195 -4.11110 14734 ft 359 kts 245°
2026-05-04 07:40 55.82835 -4.14828 15357 ft 361 kts 226°
2026-05-04 07:40 55.80881 -4.17647 15959 ft 363 kts 213°
2026-05-04 07:40 55.78787 -4.20197 16564 ft 367 kts 213°
2026-05-04 07:40 55.76648 -4.22692 17168 ft 370 kts 208°
2026-05-04 07:41 55.74279 -4.24496 17753 ft 372 kts 196°
2026-05-04 07:41 55.71727 -4.25351 18338 ft 375 kts 183°
2026-05-04 07:41 55.69118 -4.25189 18927 ft 378 kts 171°
2026-05-04 07:41 55.66600 -4.24013 19515 ft 381 kts 159°
2026-05-04 07:42 55.64204 -4.22004 20105 ft 384 kts 150°
2026-05-04 07:42 55.61866 -4.19685 20685 ft 387 kts 150°
2026-05-04 07:42 55.59499 -4.17360 21229 ft 390 kts 151°
2026-05-04 07:42 55.57106 -4.15024 21755 ft 394 kts 151°
2026-05-04 07:43 55.54695 -4.12676 22265 ft 397 kts 151°
2026-05-04 07:43 55.52270 -4.10320 22767 ft 400 kts 151°
2026-05-04 07:43 55.49827 -4.07955 23240 ft 403 kts 151°
2026-05-04 07:43 55.47343 -4.05606 23724 ft 406 kts 152°
2026-05-04 07:44 55.44828 -4.03317 24176 ft 409 kts 153°
2026-05-04 07:44 55.42281 -4.01046 24614 ft 411 kts 153°
2026-05-04 07:44 55.39719 -3.98780 25044 ft 414 kts 153°
2026-05-04 07:44 55.37133 -3.96494 25458 ft 417 kts 153°
2026-05-04 07:45 55.34568 -3.94220 25850 ft 419 kts 153°
2026-05-04 07:45 55.31958 -3.91897 26232 ft 422 kts 153°
2026-05-04 07:45 55.29329 -3.89547 26610 ft 424 kts 153°
2026-05-04 07:45 55.26696 -3.87184 26982 ft 427 kts 153°
2026-05-04 07:46 55.24041 -3.84803 27353 ft 429 kts 153°
2026-05-04 07:46 55.21369 -3.82419 27716 ft 432 kts 153°
2026-05-04 07:46 55.18684 -3.80034 28075 ft 434 kts 153°
2026-05-04 07:46 55.15978 -3.77642 28433 ft 436 kts 153°
2026-05-04 07:47 55.13263 -3.75246 28781 ft 439 kts 153°
2026-05-04 07:47 55.10532 -3.72833 29119 ft 441 kts 153°
2026-05-04 07:47 55.07785 -3.70411 29443 ft 443 kts 153°
2026-05-04 07:49 54.88318 -3.53335 32023 ft 446 kts 153°
2026-05-04 07:49 54.85547 -3.50919 32429 ft 446 kts 153°
2026-05-04 07:49 54.82782 -3.48511 32809 ft 445 kts 153°
2026-05-04 07:50 54.80017 -3.46109 32922 ft 444 kts 153°
2026-05-04 07:50 54.77263 -3.43719 32943 ft 441 kts 153°
2026-05-04 07:50 54.71782 -3.38980 32942 ft 439 kts 153°
2026-05-04 07:51 54.66313 -3.34263 32943 ft 439 kts 153°
2026-05-04 07:51 54.60878 -3.29583 32943 ft 439 kts 153°
2026-05-04 07:52 54.55406 -3.24883 32943 ft 439 kts 153°
2026-05-04 07:52 54.49932 -3.20209 32946 ft 439 kts 153°
2026-05-04 07:54 54.27995 -3.01581 32949 ft 439 kts 153°
2026-05-04 07:55 54.22431 -2.97254 32952 ft 439 kts 161°
2026-05-04 07:55 54.16638 -2.93926 32951 ft 439 kts 161°
2026-05-04 07:56 54.10874 -2.90624 32952 ft 439 kts 161°
2026-05-04 07:56 54.05067 -2.87306 32951 ft 439 kts 161°
2026-05-04 07:57 53.99283 -2.84012 32952 ft 439 kts 161°
2026-05-04 07:57 53.93465 -2.80703 32951 ft 440 kts 161°
2026-05-04 07:58 53.87670 -2.77401 32953 ft 439 kts 161°
2026-05-04 07:58 53.81873 -2.74113 32953 ft 439 kts 161°
2026-05-04 07:59 53.76067 -2.70830 32952 ft 439 kts 161°
2026-05-04 07:59 53.70267 -2.67576 32954 ft 439 kts 161°
2026-05-04 08:00 53.64468 -2.64328 32954 ft 439 kts 161°
2026-05-04 08:02 53.41243 -2.51390 32953 ft 439 kts 161°
2026-05-04 08:02 53.35434 -2.48172 32955 ft 439 kts 161°
2026-05-04 08:03 53.29667 -2.44982 32955 ft 439 kts 161°
2026-05-04 08:03 53.23860 -2.41791 32954 ft 439 kts 161°
2026-05-04 08:04 53.18051 -2.38604 32955 ft 439 kts 161°
2026-05-04 08:04 53.12364 -2.35493 32953 ft 439 kts 162°
2026-05-04 08:05 53.06557 -2.32329 32953 ft 439 kts 161°
2026-05-04 08:05 53.00962 -2.28289 32953 ft 439 kts 148°
2026-05-04 08:06 52.95863 -2.22918 32952 ft 439 kts 147°
2026-05-04 08:06 52.90695 -2.17497 32689 ft 439 kts 148°
2026-05-04 08:08 52.72600 -1.98675 30810 ft 436 kts 148°
2026-05-04 08:08 52.70038 -1.96021 30229 ft 433 kts 148°
2026-05-04 08:10 52.50235 -1.75649 25831 ft 406 kts 148°
2026-05-04 08:11 52.47849 -1.73212 25324 ft 403 kts 148°
2026-05-04 08:11 52.43119 -1.68384 24337 ft 397 kts 148°
2026-05-04 08:11 52.40777 -1.66000 23854 ft 395 kts 148°
2026-05-04 08:12 52.38455 -1.63637 23406 ft 392 kts 148°
2026-05-04 08:12 52.36147 -1.61290 22957 ft 389 kts 148°
2026-05-04 08:12 52.33852 -1.58960 22495 ft 387 kts 148°
2026-05-04 08:12 52.31562 -1.56637 22038 ft 385 kts 148°
2026-05-04 08:13 52.29290 -1.54336 21569 ft 383 kts 148°
2026-05-04 08:13 52.27060 -1.52083 21101 ft 381 kts 148°
2026-05-04 08:13 52.24815 -1.49819 20623 ft 378 kts 148°
2026-05-04 08:13 52.22581 -1.47567 20111 ft 376 kts 148°
2026-05-04 08:14 52.20496 -1.45015 19688 ft 373 kts 139°
2026-05-04 08:14 52.18549 -1.42264 19326 ft 367 kts 139°
2026-05-04 08:14 52.16625 -1.39566 18956 ft 364 kts 139°
2026-05-04 08:16 52.04042 -1.22073 16522 ft 350 kts 139°
2026-05-04 08:16 52.02195 -1.19509 16159 ft 348 kts 140°
2026-05-04 08:16 52.00355 -1.16965 15811 ft 346 kts 140°
2026-05-04 08:17 51.98558 -1.14485 15461 ft 345 kts 140°
2026-05-04 08:17 51.96732 -1.11971 15106 ft 343 kts 140°
2026-05-04 08:17 51.94919 -1.09477 14650 ft 343 kts 140°
2026-05-04 08:17 51.93077 -1.06938 13886 ft 349 kts 140°
2026-05-04 08:19 51.83170 -0.89323 12979 ft 274 kts 117°
2026-05-04 08:19 51.82344 -0.86604 12630 ft 266 kts 116°
2026-05-04 08:20 51.81532 -0.83931 12117 ft 264 kts 117°
2026-05-04 08:20 51.80723 -0.81282 11599 ft 262 kts 117°
2026-05-04 08:20 51.79918 -0.78652 11088 ft 260 kts 117°
2026-05-04 08:20 51.79119 -0.76043 10567 ft 258 kts 117°
2026-05-04 08:21 51.78324 -0.73458 10089 ft 256 kts 117°
2026-05-04 08:21 51.77532 -0.70894 9573 ft 254 kts 117°
2026-05-04 08:21 51.76748 -0.68351 9073 ft 252 kts 117°
2026-05-04 08:21 51.75970 -0.65827 8576 ft 250 kts 117°
2026-05-04 08:22 51.75194 -0.63319 8152 ft 251 kts 117°
2026-05-04 08:22 51.74424 -0.60828 7961 ft 246 kts 117°
2026-05-04 08:24 51.68548 -0.43655 5733 ft 249 kts 121°
2026-05-04 08:24 51.67673 -0.41269 5506 ft 245 kts 121°
2026-05-04 08:24 51.66817 -0.38938 5343 ft 238 kts 121°
2026-05-04 08:24 51.65986 -0.36672 5191 ft 234 kts 121°
2026-05-04 08:25 51.65161 -0.34426 5036 ft 233 kts 121°
2026-05-04 08:25 51.64351 -0.32222 4891 ft 232 kts 121°
2026-05-04 08:25 51.63532 -0.29988 4764 ft 232 kts 121°
2026-05-04 08:25 51.62715 -0.27763 4657 ft 231 kts 121°
2026-05-04 08:26 51.61896 -0.25536 4563 ft 231 kts 121°
2026-05-04 08:27 51.56049 -0.10551 3899 ft 206 kts 150°
2026-05-04 08:28 51.54709 -0.09971 3781 ft 197 kts 176°
2026-05-04 08:28 51.53365 -0.09950 3654 ft 189 kts 180°
2026-05-04 08:28 51.52064 -0.10071 3474 ft 186 kts 193°
2026-05-04 08:28 51.50984 -0.11149 3253 ft 186 kts 227°
2026-05-04 08:29 51.50207 -0.12813 2998 ft 187 kts 235°
2026-05-04 08:29 51.49496 -0.14563 2954 ft 189 kts 236°
2026-05-04 08:29 51.48788 -0.16347 2947 ft 189 kts 236°
2026-05-04 08:31 51.47794 -0.30004 1723 ft 166 kts 268°
2026-05-04 08:33 51.47771 -0.41273 393 ft 139 kts 268°
2026-05-04 08:33 51.47767 -0.42821 207 ft 139 kts 269°
2026-05-04 08:35 51.47662 -0.46831 93 ft 16 kts 230°
2026-05-04 08:35 51.47585 -0.46988 91 ft 21 kts 259°
2026-05-04 08:35 51.47584 -0.47245 86 ft 25 kts 270°
2026-05-04 08:35 51.47582 -0.47517 89 ft 25 kts 270°
2026-05-04 08:37 51.47575 -0.48892 87 ft 16 kts 261°
2026-05-04 08:37 51.47491 -0.48946 85 ft 11 kts 188°
2026-05-04 08:37 51.47421 -0.48955 89 ft 0 kts 180°
2026-05-04 08:38 51.47417 -0.48955 89 ft 0 kts 180°